QPF
0.00 0.00 0.00 0.00 0.00 0.00 0.00 0.01 0.01 0.01 0.01 0.02 0.03 0.03 0.03 0.04 0.04 0.03 0.02 0.01 0.01 0.01 0.01 0.03 0.04 0.03 0.03 0.02 0.03 0.03 0.02 0.02 0.02 0.01 0.02 0.02 0.02 0.03 0.03 0.04 0.04 0.04 0.06 0.06 0.04 0.05 0.05 0.04 0.04
0.00 0.00 0.00 0.00 0.00 0.00 0.00 0.01 0.02 0.01 0.02 0.01 0.02 0.02 0.03 0.03 0.04 0.02 0.01 0.01 0.01 0.02 0.02 0.02 0.03 0.03 0.03 0.03 0.02 0.03 0.02 0.01 0.02 0.01 0.02 0.01 0.02 0.02 0.03 0.03 0.03 0.05 0.06 0.06 0.04 0.05 0.05 0.04 0.03
0.00 0.00 0.00 0.00 0.00 0.00 0.01 0.01 0.02 0.01 0.01 0.01 0.01 0.01 0.04 0.08 0.10 0.04 0.01 0.01 0.02 0.02 0.03 0.03 0.04 0.03 0.03 0.04 0.03 0.03 0.02 0.02 0.01 0.02 0.02 0.02 0.02 0.02 0.03 0.03 0.03 0.04 0.05 0.04 0.04 0.04 0.04 0.05 0.05
0.00 0.00 0.00 0.00 0.00 0.00 0.01 0.01 0.01 0.01 0.01 0.01 0.01 0.01 0.05 0.07 0.05 0.02 0.01 0.01 0.01 0.01 0.03 0.04 0.05 0.04 0.03 0.04 0.04 0.04 0.03 0.03 0.03 0.03 0.03 0.03 0.03 0.04 0.04 0.04 0.04 0.04 0.05 0.05 0.05 0.05 0.06 0.07 0.07
0.00 0.00 0.00 0.00 0.00 0.01 0.00 0.00 0.00 0.01 0.01 0.00 0.00 0.00 0.01 0.01 0.01 0.01 0.02 0.02 0.01 0.01 0.02 0.04 0.05 0.03 0.02 0.03 0.03 0.04 0.04 0.05 0.05 0.04 0.04 0.04 0.04 0.04 0.04 0.05 0.06 0.06 0.06 0.06 0.06 0.06 0.06 0.08 0.08
0.00 0.00 0.00 0.01 0.01 0.01 0.00 0.00 0.00 0.00 0.01 0.01 0.00 0.00 0.01 0.01 0.01 0.01 0.01 0.01 0.02 0.02 0.02 0.03 0.05 0.04 0.02 0.03 0.04 0.04 0.04 0.04 0.04 0.04 0.05 0.05 0.05 0.06 0.05 0.06 0.07 0.07 0.08 0.08 0.06 0.05 0.04 0.05 0.06
0.00 0.00 0.01 0.01 0.00 0.00 0.00 0.00 0.00 0.00 0.00 0.00 0.00 0.00 0.01 0.01 0.02 0.02 0.02 0.03 0.02 0.02 0.01 0.03 0.05 0.04 0.03 0.04 0.04 0.04 0.04 0.04 0.03 0.04 0.04 0.04 0.05 0.06 0.05 0.06 0.07 0.08 0.09 0.08 0.05 0.03 0.03 0.05 0.07
0.00 0.00 0.00 0.00 0.00 0.00 0.00 0.00 0.00 0.00 0.00 0.00 0.00 0.00 0.00 0.01 0.02 0.02 0.03 0.03 0.02 0.01 0.01 0.02 0.03 0.04 0.03 0.03 0.04 0.04 0.04 0.04 0.04 0.03 0.03 0.04 0.05 0.06 0.06 0.06 0.07 0.08 0.08 0.07 0.06 0.04 0.03 0.04 0.09
0.00 0.00 0.00 0.00 0.00 0.00 0.00 0.00 0.00 0.00 0.00 0.00 0.00 0.00 0.00 0.01 0.01 0.02 0.03 0.02 0.02 0.01 0.01 0.02 0.02 0.03 0.03 0.02 0.03 0.04 0.04 0.04 0.03 0.03 0.03 0.03 0.03 0.04 0.05 0.06 0.07 0.06 0.07 0.06 0.05 0.06 0.06 0.05 0.07
0.00 0.00 0.00 0.00 0.00 0.00 0.00 0.00 0.00 0.00 0.00 0.00 0.00 0.00 0.00 0.01 0.01 0.03 0.04 0.02 0.01 0.01 0.01 0.01 0.02 0.02 0.03 0.04 0.03 0.03 0.03 0.03 0.03 0.03 0.03 0.02 0.01 0.02 0.03 0.05 0.07 0.07 0.07 0.07 0.07 0.07 0.06 0.04 0.03
0.00 0.00 0.00 0.00 0.00 0.00 0.00 0.00 0.00 0.00 0.00 0.00 0.00 0.01 0.01 0.00 0.01 0.02 0.02 0.01 0.01 0.01 0.01 0.02 0.02 0.02 0.02 0.03 0.03 0.03 0.03 0.03 0.02 0.02 0.02 0.02 0.02 0.02 0.03 0.04 0.05 0.05 0.05 0.04 0.05 0.05 0.04 0.03 0.03
0.00 0.00 0.00 0.00 0.00 0.00 0.00 0.00 0.00 0.00 0.00 0.00 0.00 0.00 0.01 0.00 0.00 0.00 0.01 0.01 0.03 0.02 0.01 0.01 0.01 0.02 0.01 0.02 0.02 0.04 0.03 0.03 0.03 0.02 0.02 0.02 0.02 0.02 0.02 0.02 0.03 0.03 0.03 0.03 0.03 0.02 0.02 0.02 0.02
0.00 0.00 0.00 0.00 0.00 0.00 0.00 0.00 0.00 0.00 0.00 0.01 0.01 0.01 0.01 0.01 0.00 0.00 0.00 0.01 0.03 0.02 0.01 0.01 0.01 0.02 0.01 0.01 0.02 0.03 0.04 0.04 0.03 0.03 0.02 0.03 0.03 0.03 0.04 0.03 0.03 0.03 0.03 0.02 0.03 0.02 0.02 0.01 0.02
0.00 0.00 0.00 0.00 0.00 0.00 0.00 0.00 0.00 0.00 0.01 0.01 0.01 0.01 0.02 0.01 0.01 0.01 0.01 0.01 0.02 0.02 0.02 0.01 0.02 0.02 0.01 0.01 0.01 0.03 0.03 0.04 0.04 0.03 0.03 0.04 0.06 0.06 0.05 0.04 0.03 0.03 0.02 0.02 0.01 0.01 0.02 0.02 0.02
0.00 0.00 0.00 0.00 0.00 0.00 0.00 0.00 0.00 0.00 0.01 0.01 0.02 0.02 0.02 0.02 0.02 0.02 0.02 0.02 0.02 0.02 0.02 0.02 0.02 0.02 0.01 0.01 0.02 0.03 0.04 0.03 0.03 0.02 0.02 0.03 0.04 0.05 0.05 0.04 0.03 0.03 0.02 0.02 0.02 0.02 0.03 0.03 0.03
0.00 0.00 0.00 0.00 0.00 0.00 0.00 0.00 0.00 0.00 0.01 0.01 0.02 0.02 0.03 0.03 0.03 0.02 0.03 0.03 0.03 0.04 0.04 0.03 0.03 0.03 0.03 0.03 0.04 0.05 0.04 0.03 0.03 0.02 0.02 0.02 0.02 0.03 0.03 0.03 0.03 0.02 0.02 0.02 0.02 0.01 0.02 0.03 0.04
0.00 0.00 0.00 0.00 0.00 0.00 0.00 0.00 0.00 0.00 0.01 0.02 0.04 0.04 0.03 0.03 0.03 0.03 0.04 0.04 0.04 0.05 0.04 0.04 0.04 0.05 0.06 0.06 0.05 0.06 0.05 0.04 0.03 0.03 0.02 0.02 0.02 0.02 0.02 0.02 0.02 0.02 0.03 0.04 0.03 0.03 0.03 0.02 0.02
0.00 0.00 0.00 0.00 0.01 0.00 0.00 0.01 0.01 0.01 0.01 0.02 0.03 0.07 0.04 0.03 0.03 0.03 0.04 0.05 0.05 0.06 0.06 0.05 0.06 0.07 0.10 0.09 0.06 0.08 0.08 0.06 0.05 0.05 0.04 0.05 0.05 0.04 0.03 0.03 0.03 0.03 0.03 0.04 0.04 0.04 0.02 0.01 0.01
0.00 0.00 0.01 0.01 0.01 0.01 0.00 0.01 0.01 0.01 0.01 0.01 0.02 0.04 0.05 0.03 0.03 0.04 0.04 0.05 0.06 0.09 0.07 0.04 0.04 0.06 0.07 0.06 0.06 0.08 0.10 0.10 0.08 0.07 0.07 0.08 0.07 0.04 0.03 0.03 0.04 0.03 0.04 0.05 0.05 0.04 0.02 0.02 0.02
0.00 0.00 0.00 0.01 0.00 0.01 0.01 0.00 0.01 0.02 0.02 0.02 0.02 0.02 0.03 0.03 0.03 0.04 0.05 0.05 0.06 0.08 0.08 0.06 0.04 0.04 0.04 0.06 0.05 0.06 0.13 0.15 0.10 0.07 0.09 0.08 0.07 0.06 0.04 0.03 0.04 0.04 0.05 0.06 0.05 0.03 0.02 0.02 0.02
0.00 0.00 0.00 0.00 0.00 0.01 0.01 0.00 0.01 0.01 0.02 0.03 0.03 0.03 0.02 0.02 0.03 0.06 0.05 0.05 0.06 0.08 0.08 0.08 0.06 0.05 0.07 0.06 0.06 0.06 0.06 0.07 0.04 0.02 0.04 0.06 0.08 0.10 0.07 0.07 0.08 0.06 0.05 0.06 0.04 0.02 0.02 0.02 0.02
0.00 0.00 0.01 0.01 0.01 0.01 0.01 0.01 0.01 0.02 0.02 0.02 0.02 0.02 0.01 0.02 0.03 0.04 0.02 0.03 0.05 0.07 0.06 0.07 0.06 0.04 0.04 0.06 0.07 0.07 0.06 0.04 0.03 0.03 0.03 0.03 0.05 0.07 0.08 0.08 0.08 0.06 0.05 0.04 0.03 0.02 0.01 0.01 0.01
0.01 0.01 0.01 0.01 0.01 0.01 0.01 0.01 0.01 0.02 0.02 0.01 0.02 0.03 0.02 0.03 0.03 0.02 0.03 0.04 0.06 0.08 0.05 0.06 0.06 0.06 0.06 0.07 0.08 0.07 0.05 0.03 0.03 0.02 0.02 0.01 0.02 0.03 0.05 0.06 0.07 0.05 0.04 0.03 0.02 0.01 0.02 0.02 0.01
0.01 0.02 0.02 0.01 0.01 0.00 0.01 0.01 0.01 0.01 0.02 0.03 0.03 0.03 0.04 0.04 0.04 0.03 0.05 0.07 0.13 0.11 0.08 0.07 0.07 0.09 0.09 0.08 0.07 0.06 0.04 0.03 0.02 0.02 0.01 0.01 0.01 0.02 0.03 0.04 0.05 0.04 0.03 0.03 0.02 0.02 0.02 0.02 0.02
0.01 0.02 0.02 0.01 0.01 0.01 0.01 0.01 0.02 0.02 0.02 0.01 0.02 0.03 0.03 0.03 0.03 0.03 0.05 0.07 0.09 0.09 0.09 0.08 0.08 0.10 0.10 0.09 0.07 0.06 0.04 0.03 0.01 0.01 0.02 0.02 0.02 0.03 0.03 0.04 0.03 0.04 0.04 0.03 0.02 0.01 0.01 0.02 0.02
0.01 0.01 0.01 0.00 0.01 0.01 0.01 0.01 0.03 0.03 0.02 0.02 0.02 0.03 0.03 0.02 0.02 0.03 0.05 0.05 0.06 0.08 0.08 0.08 0.07 0.08 0.08 0.06 0.04 0.04 0.03 0.02 0.02 0.01 0.01 0.02 0.02 0.02 0.03 0.03 0.03 0.03 0.03 0.03 0.03 0.02 0.02 0.02 0.02
0.01 0.01 0.01 0.01 0.01 0.01 0.01 0.01 0.02 0.03 0.02 0.02 0.03 0.02 0.02 0.02 0.02 0.03 0.04 0.05 0.05 0.06 0.07 0.07 0.07 0.07 0.07 0.05 0.04 0.04 0.03 0.02 0.02 0.03 0.03 0.02 0.02 0.02 0.01 0.02 0.02 0.02 0.02 0.02 0.02 0.02 0.02 0.02 0.02
0.01 0.01 0.01 0.02 0.02 0.01 0.01 0.02 0.01 0.02 0.02 0.03 0.03 0.02 0.02 0.02 0.02 0.02 0.02 0.03 0.03 0.04 0.05 0.05 0.07 0.07 0.07 0.07 0.05 0.06 0.06 0.05 0.04 0.04 0.04 0.03 0.03 0.02 0.01 0.01 0.02 0.02 0.02 0.02 0.02 0.02 0.02 0.02 0.02
0.01 0.01 0.01 0.01 0.01 0.01 0.02 0.02 0.01 0.02 0.03 0.03 0.04 0.03 0.02 0.02 0.02 0.02 0.02 0.02 0.03 0.03 0.03 0.04 0.05 0.06 0.06 0.07 0.06 0.06 0.05 0.06 0.06 0.06 0.08 0.06 0.03 0.02 0.01 0.01 0.02 0.02 0.02 0.02 0.02 0.02 0.02 0.02 0.02
0.01 0.01 0.01 0.01 0.01 0.01 0.02 0.02 0.01 0.02 0.03 0.05 0.04 0.03 0.03 0.03 0.03 0.03 0.02 0.01 0.02 0.02 0.02 0.03 0.03 0.03 0.04 0.05 0.05 0.05 0.05 0.05 0.04 0.04 0.04 0.04 0.04 0.03 0.03 0.03 0.03 0.03 0.03 0.02 0.02 0.02 0.02 0.02 0.02
MSLP
1010.39 1011.41 1012.52 1013.52 1014.27 1014.66 1014.63 1014.23 1013.58 1012.81 1012.08 1011.51 1011.16 1011.02 1011.03 1011.08 1011.09 1010.97 1010.71 1010.35 1009.97 1009.66 1009.52 1009.58 1009.85 1010.26 1010.73 1011.17 1011.51 1011.71 1011.77 1011.75 1011.72 1011.75 1011.88 1012.13 1012.48 1012.88 1013.27 1013.59 1013.83 1013.96 1014.02 1014.05 1014.08 1014.15 1014.26 1014.41 1014.58
1010.86 1012.03 1013.19 1014.16 1014.78 1014.95 1014.66 1013.99 1013.07 1012.08 1011.19 1010.52 1010.12 1009.99 1010.04 1010.16 1010.24 1010.20 1010.03 1009.77 1009.49 1009.28 1009.22 1009.36 1009.70 1010.17 1010.70 1011.19 1011.58 1011.82 1011.93 1011.95 1011.95 1011.99 1012.12 1012.34 1012.65 1012.99 1013.32 1013.60 1013.80 1013.93 1014.01 1014.07 1014.13 1014.23 1014.36 1014.52 1014.69
1011.51 1012.76 1013.91 1014.78 1015.23 1015.18 1014.65 1013.74 1012.61 1011.45 1010.46 1009.73 1009.33 1009.22 1009.31 1009.48 1009.63 1009.67 1009.58 1009.39 1009.18 1009.05 1009.05 1009.25 1009.62 1010.13 1010.68 1011.19 1011.61 1011.89 1012.05 1012.12 1012.16 1012.22 1012.34 1012.53 1012.78 1013.06 1013.32 1013.54 1013.71 1013.84 1013.93 1014.03 1014.15 1014.29 1014.47 1014.66 1014.84
1012.26 1013.52 1014.60 1015.34 1015.59 1015.34 1014.59 1013.51 1012.24 1011.01 1009.97 1009.25 1008.87 1008.80 1008.93 1009.16 1009.36 1009.45 1009.42 1009.29 1009.15 1009.06 1009.10 1009.31 1009.68 1010.17 1010.70 1011.20 1011.62 1011.92 1012.11 1012.23 1012.32 1012.41 1012.54 1012.71 1012.92 1013.13 1013.33 1013.49 1013.63 1013.74 1013.86 1014.00 1014.17 1014.38 1014.60 1014.83 1015.04
1013.01 1014.21 1015.17 1015.73 1015.80 1015.36 1014.48 1013.29 1011.98 1010.76 1009.76 1009.10 1008.78 1008.76 1008.95 1009.21 1009.44 1009.57 1009.59 1009.51 1009.40 1009.34 1009.40 1009.59 1009.91 1010.34 1010.80 1011.24 1011.62 1011.91 1012.12 1012.28 1012.41 1012.55 1012.71 1012.88 1013.07 1013.24 1013.39 1013.51 1013.61 1013.72 1013.86 1014.03 1014.25 1014.51 1014.78 1015.04 1015.28
1013.67 1014.75 1015.54 1015.91 1015.81 1015.23 1014.28 1013.08 1011.82 1010.68 1009.80 1009.23 1009.00 1009.04 1009.26 1009.55 1009.80 1009.96 1010.00 1009.96 1009.90 1009.86 1009.91 1010.06 1010.32 1010.64 1010.99 1011.34 1011.64 1011.89 1012.09 1012.27 1012.46 1012.65 1012.85 1013.06 1013.25 1013.41 1013.53 1013.62 1013.71 1013.81 1013.95 1014.15 1014.40 1014.68 1014.98 1015.26 1015.51
1014.15 1015.06 1015.66 1015.84 1015.59 1014.93 1013.97 1012.84 1011.71 1010.72 1009.99 1009.55 1009.41 1009.50 1009.73 1010.02 1010.27 1010.43 1010.51 1010.52 1010.49 1010.49 1010.54 1010.66 1010.84 1011.05 1011.28 1011.49 1011.69 1011.87 1012.04 1012.24 1012.47 1012.72 1012.99 1013.25 1013.47 1013.64 1013.76 1013.84 1013.91 1014.00 1014.14 1014.33 1014.59 1014.88 1015.18 1015.47 1015.71
1014.42 1015.14 1015.52 1015.53 1015.17 1014.47 1013.57 1012.56 1011.59 1010.79 1010.22 1009.91 1009.84 1009.95 1010.17 1010.43 1010.66 1010.82 1010.92 1010.98 1011.02 1011.07 1011.15 1011.25 1011.37 1011.49 1011.60 1011.69 1011.78 1011.88 1012.02 1012.22 1012.48 1012.79 1013.12 1013.45 1013.72 1013.92 1014.05 1014.13 1014.19 1014.26 1014.38 1014.56 1014.80 1015.08 1015.36 1015.62 1015.84
1014.49 1015.01 1015.20 1015.05 1014.60 1013.91 1013.08 1012.23 1011.44 1010.82 1010.40 1010.19 1010.15 1010.25 1010.42 1010.61 1010.79 1010.94 1011.07 1011.18 1011.31 1011.44 1011.58 1011.72 1011.82 1011.89 1011.91 1011.90 1011.90 1011.92 1012.02 1012.21 1012.50 1012.86 1013.25 1013.64 1013.96 1014.20 1014.35 1014.44 1014.49 1014.54 1014.64 1014.79 1015.00 1015.24 1015.50 1015.73 1015.92
1014.40 1014.73 1014.74 1014.48 1013.97 1013.31 1012.58 1011.87 1011.26 1010.79 1010.47 1010.31 1010.27 1010.30 1010.37 1010.47 1010.57 1010.69 1010.84 1011.02 1011.24 1011.48 1011.72 1011.94 1012.08 1012.15 1012.14 1012.08 1012.01 1011.99 1012.05 1012.23 1012.53 1012.92 1013.36 1013.79 1014.16 1014.44 1014.62 1014.71 1014.76 1014.80 1014.86 1014.99 1015.16 1015.38 1015.60 1015.81 1015.97
1014.22 1014.39 1014.28 1013.92 1013.39 1012.77 1012.13 1011.54 1011.06 1010.69 1010.44 1010.27 1010.16 1010.09 1010.04 1010.01 1010.01 1010.08 1010.23 1010.47 1010.78 1011.15 1011.52 1011.85 1012.09 1012.22 1012.24 1012.18 1012.10 1012.06 1012.10 1012.27 1012.57 1012.97 1013.43 1013.89 1014.29 1014.60 1014.81 1014.92 1014.97 1015.00 1015.05 1015.15 1015.30 1015.49 1015.69 1015.88 1016.02
1014.03 1014.09 1013.87 1013.46 1012.92 1012.35 1011.79 1011.30 1010.90 1010.58 1010.33 1010.11 1009.91 1009.70 1009.49 1009.32 1009.21 1009.20 1009.33 1009.60 1010.00 1010.48 1010.98 1011.45 1011.82 1012.06 1012.17 1012.17 1012.13 1012.10 1012.15 1012.31 1012.60 1012.99 1013.45 1013.91 1014.33 1014.66 1014.90 1015.03 1015.09 1015.13 1015.18 1015.28 1015.42 1015.59 1015.79 1015.97 1016.11
1013.87 1013.86 1013.59 1013.16 1012.64 1012.10 1011.61 1011.18 1010.82 1010.51 1010.23 1009.93 1009.60 1009.25 1008.89 1008.56 1008.32 1008.22 1008.30 1008.57 1009.01 1009.57 1010.19 1010.79 1011.30 1011.68 1011.92 1012.04 1012.08 1012.11 1012.18 1012.34 1012.61 1012.97 1013.41 1013.86 1014.28 1014.63 1014.88 1015.05 1015.15 1015.21 1015.28 1015.39 1015.53 1015.71 1015.91 1016.10 1016.25
1013.79 1013.74 1013.47 1013.05 1012.56 1012.07 1011.61 1011.21 1010.86 1010.53 1010.19 1009.81 1009.37 1008.88 1008.38 1007.91 1007.54 1007.34 1007.34 1007.55 1007.98 1008.57 1009.26 1009.96 1010.60 1011.13 1011.52 1011.78 1011.94 1012.05 1012.17 1012.34 1012.59 1012.92 1013.32 1013.74 1014.14 1014.50 1014.78 1014.99 1015.14 1015.25 1015.36 1015.49 1015.65 1015.84 1016.05 1016.26 1016.44
1013.78 1013.73 1013.47 1013.09 1012.65 1012.19 1011.77 1011.39 1011.03 1010.66 1010.26 1009.80 1009.27 1008.68 1008.07 1007.49 1007.01 1006.69 1006.58 1006.71 1007.06 1007.61 1008.30 1009.05 1009.79 1010.45 1011.00 1011.41 1011.71 1011.92 1012.10 1012.30 1012.53 1012.83 1013.18 1013.56 1013.95 1014.31 1014.63 1014.89 1015.09 1015.27 1015.42 1015.59 1015.78 1015.99 1016.22 1016.44 1016.63
1013.82 1013.78 1013.57 1013.23 1012.84 1012.44 1012.04 1011.66 1011.28 1010.87 1010.42 1009.91 1009.32 1008.67 1008.00 1007.34 1006.77 1006.34 1006.11 1006.10 1006.34 1006.79 1007.42 1008.16 1008.95 1009.71 1010.38 1010.94 1011.39 1011.72 1011.98 1012.21 1012.44 1012.70 1013.00 1013.34 1013.71 1014.08 1014.43 1014.75 1015.03 1015.27 1015.48 1015.69 1015.91 1016.13 1016.36 1016.60 1016.80
1013.85 1013.85 1013.68 1013.42 1013.09 1012.73 1012.36 1011.97 1011.55 1011.11 1010.62 1010.07 1009.46 1008.79 1008.10 1007.42 1006.79 1006.27 1005.91 1005.76 1005.83 1006.13 1006.64 1007.32 1008.10 1008.91 1009.69 1010.39 1010.97 1011.43 1011.78 1012.06 1012.29 1012.53 1012.79 1013.09 1013.44 1013.82 1014.21 1014.58 1014.93 1015.25 1015.53 1015.78 1016.02 1016.25 1016.48 1016.71 1016.92
1013.84 1013.88 1013.79 1013.60 1013.34 1013.03 1012.66 1012.25 1011.79 1011.30 1010.76 1010.19 1009.58 1008.93 1008.26 1007.59 1006.93 1006.35 1005.88 1005.58 1005.47 1005.60 1005.96 1006.52 1007.25 1008.08 1008.93 1009.74 1010.45 1011.04 1011.49 1011.82 1012.08 1012.30 1012.53 1012.81 1013.14 1013.53 1013.95 1014.38 1014.80 1015.19 1015.53 1015.82 1016.08 1016.32 1016.54 1016.76 1016.97
1013.75 1013.84 1013.84 1013.74 1013.56 1013.28 1012.91 1012.45 1011.93 1011.36 1010.77 1010.16 1009.55 1008.94 1008.32 1007.68 1007.05 1006.44 1005.89 1005.46 1005.19 1005.13 1005.32 1005.74 1006.39 1007.20 1008.09 1008.98 1009.81 1010.51 1011.06 1011.47 1011.76 1011.99 1012.21 1012.47 1012.79 1013.18 1013.64 1014.12 1014.61 1015.06 1015.46 1015.80 1016.08 1016.32 1016.54 1016.74 1016.95
1013.54 1013.71 1013.81 1013.82 1013.72 1013.47 1013.08 1012.55 1011.93 1011.26 1010.57 1009.91 1009.28 1008.70 1008.14 1007.57 1006.99 1006.40 1005.82 1005.29 1004.89 1004.66 1004.67 1004.95 1005.49 1006.25 1007.15 1008.10 1009.02 1009.83 1010.48 1010.97 1011.32 1011.57 1011.80 1012.05 1012.37 1012.77 1013.25 1013.78 1014.33 1014.84 1015.30 1015.68 1015.99 1016.25 1016.47 1016.66 1016.87
1013.21 1013.49 1013.72 1013.85 1013.82 1013.59 1013.16 1012.54 1011.78 1010.96 1010.14 1009.39 1008.72 1008.16 1007.65 1007.17 1006.67 1006.14 1005.57 1005.00 1004.50 1004.15 1004.01 1004.13 1004.55 1005.23 1006.11 1007.09 1008.07 1008.97 1009.72 1010.30 1010.72 1011.02 1011.27 1011.53 1011.86 1012.27 1012.78 1013.35 1013.94 1014.51 1015.03 1015.46 1015.81 1016.09 1016.32 1016.53 1016.74
1012.78 1013.21 1013.59 1013.84 1013.89 1013.66 1013.16 1012.41 1011.48 1010.48 1009.49 1008.61 1007.89 1007.32 1006.87 1006.48 1006.09 1005.65 1005.14 1004.58 1004.04 1003.59 1003.32 1003.30 1003.59 1004.17 1004.99 1005.95 1006.97 1007.93 1008.78 1009.45 1009.95 1010.32 1010.62 1010.91 1011.26 1011.69 1012.21 1012.81 1013.44 1014.06 1014.63 1015.12 1015.52 1015.84 1016.10 1016.34 1016.58
1012.29 1012.88 1013.42 1013.79 1013.90 1013.66 1013.08 1012.18 1011.07 1009.86 1008.69 1007.67 1006.86 1006.28 1005.88 1005.59 1005.33 1005.02 1004.60 1004.10 1003.54 1003.03 1002.66 1002.51 1002.66 1003.11 1003.83 1004.75 1005.76 1006.77 1007.68 1008.45 1009.04 1009.50 1009.87 1010.21 1010.59 1011.03 1011.58 1012.19 1012.85 1013.52 1014.13 1014.67 1015.13 1015.50 1015.81 1016.09 1016.35
1011.78 1012.53 1013.21 1013.68 1013.83 1013.58 1012.90 1011.85 1010.55 1009.15 1007.80 1006.64 1005.75 1005.16 1004.81 1004.64 1004.51 1004.34 1004.05 1003.62 1003.10 1002.55 1002.08 1001.80 1001.80 1002.10 1002.70 1003.53 1004.51 1005.53 1006.50 1007.34 1008.04 1008.59 1009.04 1009.45 1009.87 1010.35 1010.91 1011.53 1012.21 1012.90 1013.55 1014.14 1014.65 1015.08 1015.44 1015.76 1016.06
1011.26 1012.14 1012.93 1013.47 1013.64 1013.34 1012.57 1011.39 1009.92 1008.35 1006.86 1005.59 1004.65 1004.06 1003.78 1003.72 1003.73 1003.71 1003.56 1003.23 1002.74 1002.18 1001.64 1001.23 1001.07 1001.21 1001.66 1002.38 1003.29 1004.29 1005.29 1006.21 1007.01 1007.66 1008.21 1008.70 1009.17 1009.68 1010.24 1010.88 1011.55 1012.24 1012.92 1013.54 1014.09 1014.57 1014.98 1015.34 1015.68
1010.75 1011.70 1012.54 1013.09 1013.23 1012.88 1012.02 1010.74 1009.16 1007.48 1005.90 1004.58 1003.62 1003.07 1002.86 1002.91 1003.07 1003.19 1003.16 1002.93 1002.49 1001.92 1001.32 1000.80 1000.49 1000.46 1000.75 1001.34 1002.16 1003.13 1004.15 1005.13 1006.02 1006.78 1007.43 1008.00 1008.53 1009.07 1009.65 1010.27 1010.93 1011.61 1012.28 1012.91 1013.49 1014.00 1014.45 1014.84 1015.20
1010.23 1011.17 1011.97 1012.47 1012.55 1012.12 1011.20 1009.85 1008.22 1006.51 1004.91 1003.59 1002.67 1002.18 1002.06 1002.21 1002.49 1002.73 1002.82 1002.67 1002.29 1001.72 1001.07 1000.46 1000.02 999.85 999.99 1000.46 1001.19 1002.11 1003.14 1004.16 1005.13 1005.99 1006.75 1007.41 1008.00 1008.57 1009.15 1009.75 1010.39 1011.03 1011.68 1012.30 1012.88 1013.40 1013.86 1014.27 1014.64
1009.65 1010.49 1011.17 1011.56 1011.53 1011.03 1010.05 1008.68 1007.07 1005.40 1003.86 1002.62 1001.78 1001.36 1001.32 1001.56 1001.92 1002.26 1002.42 1002.35 1002.01 1001.46 1000.79 1000.13 999.61 999.34 999.37 999.73 1000.39 1001.27 1002.29 1003.37 1004.41 1005.36 1006.20 1006.94 1007.59 1008.19 1008.77 1009.35 1009.94 1010.55 1011.15 1011.74 1012.29 1012.80 1013.26 1013.67 1014.04
1008.96 1009.60 1010.09 1010.30 1010.14 1009.56 1008.56 1007.23 1005.70 1004.14 1002.72 1001.60 1000.86 1000.53 1000.57 1000.85 1001.26 1001.63 1001.84 1001.81 1001.52 1001.01 1000.36 999.71 999.17 998.86 998.84 999.16 999.77 1000.63 1001.66 1002.76 1003.85 1004.88 1005.80 1006.61 1007.31 1007.93 1008.51 1009.07 1009.61 1010.16 1010.71 1011.24 1011.76 1012.24 1012.68 1013.07 1013.42
1008.12 1008.50 1008.75 1008.75 1008.44 1007.78 1006.79 1005.54 1004.14 1002.75 1001.50 1000.53 999.91 999.65 999.71 999.99 1000.38 1000.74 1000.95 1000.94 1000.70 1000.26 999.69 999.10 998.63 998.36 998.37 998.69 999.30 1000.17 1001.21 1002.33 1003.47 1004.55 1005.53 1006.39 1007.13 1007.77 1008.35 1008.88 1009.38 1009.88 1010.36 1010.84 1011.30 1011.74 1012.15 1012.51 1012.84
Thickness
5800 5799 5797 5788 5770 5752 5753 5767 5779 5783 5787 5796 5798 5794 5786 5780 5774 5770 5790 5798 5797 5793 5791 5788 5786 5783 5781 5780 5778 5776 5775 5773 5772 5770 5769 5767 5766 5764 5762 5761 5760 5758 5757 5757 5756 5755 5754 5754 5753
5799 5797 5790 5777 5755 5740 5751 5772 5778 5786 5794 5799 5798 5794 5787 5784 5789 5789 5792 5796 5796 5793 5789 5787 5784 5782 5780 5778 5776 5774 5772 5770 5769 5767 5766 5765 5763 5762 5760 5759 5757 5756 5755 5754 5753 5752 5751 5751 5750
5798 5796 5779 5763 5751 5745 5760 5778 5784 5793 5800 5798 5793 5793 5788 5784 5790 5791 5796 5797 5794 5791 5787 5785 5782 5780 5778 5775 5773 5771 5770 5768 5766 5765 5763 5762 5760 5759 5758 5757 5755 5754 5752 5751 5751 5750 5749 5749 5748
5794 5783 5771 5756 5754 5762 5771 5783 5789 5790 5796 5799 5792 5785 5789 5796 5795 5796 5797 5796 5791 5788 5785 5783 5780 5778 5775 5773 5771 5769 5767 5765 5764 5762 5760 5759 5758 5756 5755 5754 5753 5751 5750 5749 5748 5747 5747 5747 5746
5787 5771 5756 5746 5754 5769 5781 5789 5792 5789 5791 5794 5791 5781 5782 5793 5798 5797 5795 5792 5789 5785 5783 5780 5778 5776 5773 5771 5769 5767 5764 5763 5761 5759 5758 5756 5754 5753 5752 5752 5750 5749 5747 5746 5745 5745 5744 5745 5744
5771 5761 5743 5740 5754 5772 5785 5794 5793 5790 5790 5793 5789 5780 5780 5791 5793 5792 5792 5789 5787 5784 5781 5778 5775 5773 5771 5769 5767 5765 5762 5760 5758 5757 5755 5754 5752 5751 5750 5749 5747 5746 5745 5743 5743 5742 5742 5742 5742
5764 5751 5744 5749 5755 5767 5785 5795 5792 5789 5787 5791 5793 5778 5779 5786 5790 5791 5788 5786 5783 5780 5778 5775 5773 5770 5768 5766 5764 5762 5760 5758 5756 5754 5753 5751 5750 5748 5747 5746 5745 5743 5742 5741 5740 5739 5739 5739 5739
5771 5753 5749 5748 5756 5766 5786 5793 5796 5793 5790 5800 5797 5780 5776 5785 5789 5788 5784 5781 5779 5777 5775 5773 5770 5768 5766 5764 5762 5759 5758 5756 5754 5752 5750 5749 5747 5746 5744 5743 5741 5740 5739 5738 5737 5736 5736 5736 5736
5773 5746 5740 5752 5760 5771 5785 5786 5794 5801 5796 5795 5797 5793 5793 5792 5787 5782 5777 5774 5773 5772 5771 5770 5768 5766 5764 5762 5759 5757 5755 5753 5751 5749 5748 5746 5744 5743 5741 5740 5738 5737 5736 5735 5734 5733 5732 5732 5732
5760 5741 5751 5767 5774 5777 5782 5784 5789 5791 5786 5786 5788 5792 5794 5789 5783 5777 5773 5770 5768 5768 5768 5768 5766 5764 5762 5760 5757 5755 5753 5750 5748 5746 5744 5743 5741 5739 5738 5737 5735 5734 5733 5732 5730 5729 5728 5729 5728
5760 5752 5763 5773 5781 5782 5781 5784 5791 5786 5779 5786 5786 5786 5787 5783 5780 5776 5773 5771 5769 5768 5767 5765 5764 5762 5760 5757 5755 5753 5750 5747 5745 5743 5741 5739 5738 5736 5734 5733 5731 5730 5729 5727 5726 5725 5724 5724 5724
5758 5764 5770 5775 5783 5781 5781 5784 5784 5786 5790 5800 5797 5792 5786 5781 5778 5776 5773 5771 5769 5766 5765 5764 5762 5760 5758 5755 5753 5750 5748 5745 5742 5740 5738 5736 5734 5732 5731 5729 5727 5726 5724 5723 5721 5721 5720 5720 5720
5758 5763 5773 5777 5778 5780 5782 5780 5782 5785 5796 5798 5794 5788 5784 5781 5777 5776 5774 5771 5768 5765 5763 5762 5760 5757 5755 5752 5750 5747 5745 5743 5740 5737 5735 5733 5731 5729 5727 5725 5723 5722 5720 5719 5717 5716 5716 5716 5715
5761 5763 5768 5773 5775 5779 5777 5778 5779 5782 5791 5789 5787 5783 5781 5778 5776 5772 5770 5768 5766 5764 5762 5760 5757 5755 5752 5749 5747 5745 5742 5740 5737 5735 5732 5730 5728 5725 5723 5721 5719 5718 5716 5715 5713 5712 5712 5711 5711
5761 5757 5760 5767 5771 5775 5774 5767 5772 5782 5785 5781 5780 5779 5777 5776 5774 5771 5770 5768 5766 5763 5760 5757 5755 5752 5749 5747 5745 5742 5739 5737 5735 5732 5730 5727 5725 5722 5720 5718 5716 5714 5713 5711 5710 5708 5708 5707 5707
5752 5744 5739 5756 5765 5769 5763 5750 5771 5779 5777 5772 5773 5774 5772 5771 5771 5770 5769 5767 5765 5761 5757 5755 5753 5749 5747 5745 5742 5739 5737 5735 5732 5729 5727 5724 5722 5719 5717 5714 5712 5710 5709 5707 5706 5704 5703 5702 5702
5731 5724 5730 5744 5759 5761 5755 5748 5766 5772 5771 5766 5767 5768 5768 5766 5766 5767 5767 5765 5763 5759 5755 5752 5750 5747 5745 5742 5739 5736 5734 5732 5729 5727 5724 5721 5719 5716 5714 5711 5709 5707 5705 5703 5703 5700 5698 5697 5696
5718 5722 5726 5732 5748 5751 5746 5746 5759 5765 5764 5761 5762 5763 5762 5762 5763 5765 5764 5762 5759 5756 5753 5750 5747 5745 5742 5739 5735 5732 5730 5728 5726 5723 5721 5719 5716 5713 5711 5708 5706 5704 5701 5699 5698 5695 5693 5692 5691
5729 5725 5721 5731 5746 5742 5739 5741 5749 5757 5756 5755 5755 5757 5757 5758 5761 5761 5760 5759 5755 5751 5748 5746 5744 5741 5738 5735 5731 5727 5724 5723 5722 5720 5718 5716 5713 5710 5708 5705 5703 5700 5698 5696 5694 5691 5689 5687 5686
5725 5720 5720 5729 5741 5739 5733 5736 5746 5752 5753 5754 5754 5754 5755 5755 5755 5756 5756 5755 5752 5748 5745 5743 5741 5739 5736 5733 5729 5726 5723 5720 5718 5717 5714 5713 5710 5708 5705 5703 5700 5697 5694 5691 5690 5688 5685 5682 5681
5721 5718 5720 5722 5729 5734 5730 5728 5736 5746 5751 5753 5754 5754 5754 5754 5752 5752 5751 5749 5747 5745 5743 5742 5739 5737 5734 5731 5726 5722 5718 5716 5713 5712 5710 5709 5708 5705 5703 5700 5698 5694 5692 5689 5686 5684 5682 5678 5676
5714 5730 5727 5723 5712 5705 5717 5701 5725 5735 5740 5745 5748 5749 5750 5752 5751 5749 5747 5745 5744 5743 5741 5739 5736 5734 5731 5728 5724 5719 5716 5713 5711 5709 5707 5706 5704 5702 5700 5698 5695 5691 5688 5686 5683 5681 5678 5675 5671
5725 5733 5726 5719 5708 5699 5705 5698 5711 5726 5728 5737 5744 5746 5747 5748 5748 5746 5745 5743 5741 5739 5737 5735 5732 5729 5727 5724 5721 5717 5714 5711 5709 5706 5704 5702 5700 5699 5697 5694 5691 5688 5685 5683 5680 5677 5674 5672 5669
5732 5723 5713 5701 5692 5683 5698 5693 5700 5714 5724 5734 5740 5743 5744 5744 5743 5742 5741 5739 5737 5736 5734 5731 5728 5725 5723 5721 5718 5714 5711 5708 5705 5702 5700 5698 5696 5694 5692 5690 5687 5684 5681 5679 5676 5673 5671 5668 5666
5721 5699 5679 5677 5670 5677 5697 5693 5699 5722 5730 5734 5736 5738 5740 5740 5738 5736 5734 5734 5733 5732 5730 5728 5725 5721 5720 5718 5715 5712 5709 5707 5704 5701 5698 5694 5691 5690 5688 5686 5683 5680 5678 5675 5673 5669 5667 5665 5662
5711 5702 5678 5669 5667 5676 5691 5688 5706 5725 5731 5734 5735 5734 5735 5734 5733 5731 5731 5730 5730 5729 5727 5725 5722 5719 5717 5715 5713 5711 5707 5704 5702 5699 5696 5693 5689 5687 5685 5683 5680 5677 5674 5671 5668 5666 5663 5661 5659
5707 5698 5702 5682 5677 5671 5679 5691 5707 5721 5724 5726 5728 5728 5728 5728 5728 5727 5727 5727 5727 5725 5723 5721 5719 5716 5714 5712 5710 5707 5704 5702 5699 5696 5693 5690 5687 5684 5682 5680 5677 5674 5671 5668 5664 5661 5659 5657 5655
5716 5704 5686 5675 5664 5662 5676 5684 5693 5709 5714 5719 5720 5721 5722 5722 5722 5723 5722 5722 5723 5722 5719 5717 5716 5713 5711 5709 5707 5705 5702 5700 5697 5693 5690 5687 5684 5682 5680 5677 5674 5671 5668 5665 5661 5658 5656 5653 5651
5701 5696 5687 5675 5673 5665 5662 5679 5710 5712 5715 5716 5718 5719 5718 5718 5718 5717 5717 5718 5718 5717 5715 5713 5711 5709 5707 5706 5704 5702 5700 5697 5694 5691 5688 5686 5683 5680 5677 5675 5671 5668 5665 5662 5658 5655 5653 5650 5648
5708 5698 5687 5675 5670 5668 5666 5679 5714 5713 5713 5714 5715 5715 5715 5715 5714 5713 5712 5712 5711 5710 5710 5708 5706 5705 5704 5702 5700 5699 5697 5694 5691 5688 5686 5683 5681 5679 5676 5672 5669 5665 5662 5659 5655 5653 5651 5648 5646